Location: Hale Hill Observatory
(39.3806°N, 86.8431°W)
Time: 11:40:11
(UTC-05:00)

Envisat - Visible Passes

Search period start: 02 December 2020 00:00
Search period end: 12 December 2020 00:00
Orbit: 764 x 766 km, 98.1° (Epoch: 01 December)

Date Brightness Start Highest point End Pass type
(mag) Time Alt. Az. Time Alt. Az. Time Alt. Az.
02 Dec 3.7 06:25:34 10° NNE 06:30:35 59° E 06:35:35 10° S visible
02 Dec 6.2 19:21:17 10° WSW 19:23:28 13° W 19:25:39 10° WNW visible
03 Dec 5.2 05:49:25 10° NE 05:53:37 26° E 05:57:48 10° SSE visible
03 Dec 5.1 18:41:57 10° SSW 18:46:19 29° W 18:50:44 10° NW visible
04 Dec 6.3 05:15:12 10° ENE 05:16:26 11° E 05:17:41 10° ESE visible
04 Dec 2.9 06:50:55 10° N 06:56:01 79° WNW 07:01:05 10° SSW visible
04 Dec 3.5 18:04:21 10° S 18:09:23 67° W 18:14:27 10° NNW visible
05 Dec 4.2 06:14:18 10° NNE 06:19:10 45° E 06:24:01 10° S visible
05 Dec 6.0 19:08:47 10° SW 19:11:57 16° W 19:15:07 10° NW visible
06 Dec 5.6 05:38:26 10° NE 05:42:09 20° E 05:45:50 10° SE visible
06 Dec 3.3 07:16:31 10° N 07:21:20 44° WNW 07:26:08 10° SW visible
06 Dec 4.7 18:30:12 10° SSW 18:34:52 37° W 18:39:34 10° NNW visible
07 Dec 3.1 06:39:31 10° NNE 06:44:38 82° ESE 06:49:43 10° S visible
07 Dec 3.1 17:52:54 10° SSE 17:57:59 86° WSW 18:03:05 10° NNW visible
08 Dec 4.6 06:03:04 10° NNE 06:07:44 35° E 06:12:22 10° SSE visible
08 Dec 5.7 18:56:39 10° SW 19:00:27 21° W 19:04:16 10° NW visible
09 Dec 5.9 05:27:37 10° NE 05:30:38 16° E 05:33:40 10° SE visible
09 Dec 3.1 07:05:01 10° N 07:10:00 57° WNW 07:14:57 10° SSW visible
09 Dec 4.1 18:18:33 10° S 18:23:26 48° W 18:28:21 10° NNW visible
10 Dec 3.5 06:28:10 10° NNE 06:33:14 64° E 06:38:16 10° S visible
10 Dec 6.3 19:24:30 10° WSW 19:26:08 11° W 19:27:47 10° WNW visible
11 Dec 5.1 05:51:56 10° NE 05:56:17 28° E 06:00:35 10° SSE visible
11 Dec 5.3 18:44:43 10° SSW 18:48:58 27° W 18:53:15 10° NW visible
